Content
SEND FEEDBACK

Daily
Averages
Monthly
Summary
United States of America

BUTLER, GEORGIA


Home > North America > United States > Georgia
Elevation: 65 feet     Latitude: 32 33N     Longitude: 084 14W

WEATHER
 
SELECT A DAY
Number of Records: 336,172;   Date Range: 10/4/00 - 7/29/14
 
SHARE

PRINT THIS DATA

[ ← Previous Day ]
WEATHER ALMANAC - JANUARY 24, 2013
[ Next Day → ]
[ °C ]   °F
Weather ElementAverageHighLow
Temperature53.2 °F62.6 °F (1:35 pm)41 °F (10:35 pm)
Dewpoint39.2 °F46.4 °F (3:15 am)19.4 °F (11:15 pm)
Humidity60.9 %87 % (8:15 am)39 % (9:35 pm)
Barometer30.25 in30.34 in (9:55 pm)30.17 in (4:15 am)
Wind Speed9.1 mph19.6 mph (11:35 am)
Wind Gust23 mph (11:35 am)
Weather ElementAverage
Visibility10 mi
Wind DirectionSW (225.2 °)

Weather ElementTotal
Precipitation---
Heating Degree Days13.2 (Base 65)
Growing Degree Days1.8 (Base 50)
Averaged from 71 records on January 24, 2013
WEATHER CONDITIONS BREAKOUT
WIND DIRECTION BREAKOUT
WEATHER BY HOUR - JANUARY 24, 2013
[ °C ]   °F
Local TimeTemperatureDewpointHumidityBarometerVisibilityWind DirectionWind SpeedGust SpeedPrecipitationEventsConditions
12:35 AM51.8 °F42.8 °F71 %30.22 in10.0 miWSW (250°)10.4 mphOvercast
12:55 AM51.8 °F42.8 °F71 %30.22 in10.0 miWest (260°)10.4 mph16.1 mphOvercast
1:15 AM51.8 °F42.8 °F71 %30.21 in10.0 miWSW (250°)10.4 mphOvercast
1:35 AM51.8 °F42.8 °F71 %30.20 in10.0 miWest (260°)6.9 mphOvercast
1:55 AM51.8 °F42.8 °F71 %30.21 in10.0 miWest (260°)9.2 mphOvercast
2:15 AM51.8 °F44.6 °F76 %30.20 in10.0 miWSW (250°)9.2 mphMostly Cloudy
2:35 AM50.0 °F44.6 °F82 %30.20 in10.0 miWSW (250°)8.1 mphMostly Cloudy
2:55 AM51.8 °F44.6 °F76 %30.19 in10.0 miWest (260°)9.2 mphMostly Cloudy
3:15 AM53.6 °F46.4 °F77 %30.19 in10.0 miWSW (250°)9.2 mphOvercast
3:35 AM53.6 °F46.4 °F77 %30.18 in10.0 miWest (260°)10.4 mphOvercast
3:55 AM53.6 °F46.4 °F77 %30.18 in10.0 miWSW (250°)9.2 mphOvercast
4:15 AM51.8 °F46.4 °F82 %30.17 in10.0 miWSW (250°)10.4 mphOvercast
4:35 AM51.8 °F46.4 °F82 %30.17 in10.0 miWest (260°)9.2 mphMostly Cloudy
4:55 AM50.0 °F44.6 °F82 %30.17 in10.0 miWest (270°)9.2 mphMostly Cloudy
5:15 AM50.0 °F44.6 °F82 %30.17 in10.0 miWest (270°)11.5 mph18.4 mphScattered Clouds
5:35 AM51.8 °F46.4 °F82 %30.18 in10.0 miWNW (290°)13.8 mph18.4 mphMostly Cloudy
5:55 AM51.8 °F46.4 °F82 %30.19 in10.0 miWNW (290°)11.5 mphOvercast
6:15 AM51.8 °F44.6 °F76 %30.18 in10.0 miWest (280°)13.8 mph18.4 mphMostly Cloudy
6:35 AM50.0 °F44.6 °F82 %30.18 in10.0 miWest (280°)10.4 mphScattered Clouds
6:55 AM51.8 °F46.4 °F82 %30.19 in10.0 miWest (280°)10.4 mph16.1 mphMostly Cloudy
7:15 AM50.0 °F44.6 °F82 %30.19 in10.0 miWest (280°)10.4 mphScattered Clouds
7:35 AM50.0 °F44.6 °F82 %30.21 in10.0 miWNW (290°)9.2 mphScattered Clouds
7:55 AM50.0 °F44.6 °F82 %30.22 in10.0 miWNW (300°)10.4 mphScattered Clouds
8:15 AM50.0 °F46.4 °F87 %30.22 in10.0 miWNW (290°)9.2 mphScattered Clouds
8:35 AM51.8 °F46.4 °F82 %30.21 in10.0 miWNW (290°)10.4 mphScattered Clouds
8:55 AM51.8 °F46.4 °F82 %30.22 in10.0 miWNW (300°)11.5 mphScattered Clouds
9:15 AM53.6 °F46.4 °F77 %30.23 in10.0 miWNW (300°)11.5 mphScattered Clouds
9:35 AM53.6 °F46.4 °F77 %30.24 in10.0 miWNW (300°)13.8 mph18.4 mphClear
9:55 AM55.4 °F46.4 °F72 %30.25 in10.0 miWNW (300°)15.0 mph18.4 mphMostly Cloudy
10:15 AM55.4 °F46.4 °F72 %30.26 in10.0 miNW (320°)13.8 mph19.6 mphMostly Cloudy
10:35 AM55.4 °F46.4 °F72 %30.26 in10.0 miNW (310°)12.7 mph19.6 mphScattered Clouds
10:55 AM57.2 °F46.4 °F67 %30.27 in10.0 miNNW (330°)6.9 mphScattered Clouds
11:15 AM59.0 °F46.4 °F63 %30.28 in10.0 miNNW (340°)9.2 mph16.1 mphScattered Clouds
11:35 AM59.0 °F44.6 °F59 %30.28 in10.0 miNW (310°)19.6 mph23.0 mphScattered Clouds
11:55 AM59.0 °F44.6 °F59 %30.27 in10.0 miNW (310°)12.7 mph17.3 mphClear
12:15 PM59.0 °F44.6 °F59 %30.26 in10.0 miNW (320°)10.4 mphClear
12:35 PM60.8 °F44.6 °F55 %30.25 in10.0 miNW (310°)9.2 mph17.3 mphClear
12:55 PM60.8 °F44.6 °F55 %30.25 in10.0 miNW (310°)12.7 mph23.0 mphClear
1:15 PM60.8 °F44.6 °F55 %30.25 in10.0 miNW (310°)10.4 mph16.1 mphClear
1:35 PM62.6 °F44.6 °F52 %30.24 in10.0 miNW (320°)9.2 mph16.1 mphClear
1:55 PM62.6 °F42.8 °F48 %30.24 in10.0 miNNW (340°)6.9 mphClear
2:15 PM62.6 °F42.8 °F48 %30.23 in10.0 miWNW (300°)15.0 mph21.9 mphClear
2:35 PM62.6 °F41.0 °F45 %30.24 in10.0 miNW (310°)12.7 mph21.9 mphClear
2:55 PM62.6 °F42.8 °F48 %30.24 in10.0 miNorth (360°)9.2 mph21.9 mphClear
3:15 PM62.6 °F41.0 °F45 %30.24 in10.0 miNW (310°)10.4 mph18.4 mphClear
3:35 PM62.6 °F41.0 °F45 %30.24 in10.0 miNW (320°)4.6 mph17.3 mphClear
3:55 PM62.6 °F41.0 °F45 %30.24 in10.0 miNW (310°)11.5 mph17.3 mphClear
4:15 PM62.6 °F39.2 °F42 %30.24 in10.0 miNNW (340°)6.9 mph17.3 mphClear
4:35 PM60.8 °F37.4 °F42 %30.25 in10.0 miNNW (330°)5.8 mphClear
4:55 PM60.8 °F37.4 °F42 %30.25 in10.0 miNorth (10°)4.6 mphClear
5:15 PM59.0 °F35.6 °F42 %30.25 in10.0 miNorth (360°)6.9 mphClear
5:35 PM59.0 °F35.6 °F42 %30.25 in10.0 miNNE (20°)4.6 mphClear
5:55 PM55.4 °F35.6 °F47 %30.27 in10.0 miNorth (10°)4.6 mphClear
6:15 PM53.6 °F33.8 °F47 %30.27 in10.0 miNorth (360°)4.6 mphClear
6:35 PM53.6 °F33.8 °F47 %30.28 in10.0 miNorth (360°)3.5 mphClear
6:55 PM51.8 °F33.8 °F50 %30.30 in10.0 miNE (40°)6.9 mphClear
7:15 PM51.8 °F32.0 °F47 %30.30 in10.0 miNE (50°)4.6 mphClear
7:35 PM50.0 °F30.2 °F47 %30.31 in10.0 miNNE (30°)6.9 mphClear
7:55 PM50.0 °F28.4 °F43 %30.31 in10.0 miNNE (20°)5.8 mphClear
8:15 PM46.4 °F26.6 °F46 %30.31 in10.0 miNNE (20°)5.8 mphClear
8:35 PM46.4 °F26.6 °F46 %30.33 in10.0 miNNE (30°)5.8 mphClear
8:55 PM44.6 °F26.6 °F49 %30.33 in10.0 miNNE (30°)5.8 mphClear
9:15 PM44.6 °F23.0 °F43 %30.33 in10.0 miNNE (30°)6.9 mphClear
9:35 PM44.6 °F21.2 °F39 %30.33 in10.0 miNNE (30°)5.8 mphClear
9:55 PM42.8 °F21.2 °F42 %30.34 in10.0 miNNE (30°)4.6 mphClear
10:15 PM42.8 °F21.2 °F42 %30.33 in10.0 miNE (40°)4.6 mphClear
10:35 PM41.0 °F21.2 °F45 %30.34 in10.0 miNNE (20°)5.8 mphClear
10:55 PM41.0 °F21.2 °F45 %30.34 in10.0 miNNE (30°)6.9 mphScattered Clouds
11:15 PM42.8 °F19.4 °F39 %30.34 in10.0 miNE (40°)8.1 mphMostly Cloudy
11:35 PM42.8 °F19.4 °F39 %30.34 in10.0 miNE (50°)8.1 mphOvercast
11:55 PM42.8 °F21.2 °F42 %30.34 in10.0 miNE (50°)8.1 mphOvercast
Hourly data recorded from KOPN, located miles away from Butler, Georgia







STORIES FROM OUR PARTNERS